Location: Clatteringshaws Loch
(55.0508°N, 4.2860°W)
Time: 07:27:20
(UTC+00:00)

SR - Visible Passes

Search period start: 06 March 2015 00:00
Search period end: 16 March 2015 00:00
Orbit: 584 x 878 km, 66.7° (Epoch: 04 March)

Date Brightness Start Highest point End Pass type
(mag) Time Alt. Az. Time Alt. Az. Time Alt. Az.
06 Mar ? 04:45:41 10° SSE 04:49:09 19° ESE 04:52:33 10° ENE visible
07 Mar ? 03:59:46 10° ESE 04:00:46 11° ESE 04:01:59 10° E visible
07 Mar ? 05:37:15 10° SSW 05:42:07 54° SE 05:46:39 10° NE visible
08 Mar ? 04:49:08 10° S 04:53:32 32° ESE 04:57:41 10° ENE visible
09 Mar ? 04:01:38 10° SSE 04:05:02 19° ESE 04:08:23 10° ENE visible
09 Mar ? 05:41:43 10° SW 05:46:41 88° SE 05:51:16 10° NE visible
10 Mar ? 03:15:50 10° ESE 03:16:38 10° ESE 03:17:40 10° E visible
10 Mar ? 04:53:39 13° SSW 04:57:59 54° SE 05:02:29 10° NE visible
11 Mar ? 04:06:39 19° SSE 04:09:23 32° ESE 04:13:30 10° ENE visible
11 Mar ? 05:46:31 10° WSW 05:51:20 59° NW 05:55:49 10° NE visible
12 Mar ? 03:19:33 17° SE 03:20:53 19° ESE 03:24:11 10° ENE visible
12 Mar ? 04:59:03 19° SW 05:02:31 88° SE 05:07:05 10° NE visible
13 Mar ? 02:32:22 10° ESE 02:32:28 10° ESE 02:33:16 10° E visible
13 Mar ? 04:11:50 32° S 04:13:49 53° SE 04:18:17 10° NE visible
13 Mar ? 05:51:33 10° WSW 05:56:05 40° NW 06:00:19 10° NE visible
14 Mar ? 03:24:34 30° SE 03:25:12 31° ESE 03:29:17 10° ENE visible
14 Mar ? 05:04:03 21° WSW 05:07:09 59° NW 05:11:36 10° NE visible
15 Mar ? 02:37:13 18° ESE 02:37:13 18° ESE 02:39:56 10° ENE visible
15 Mar ? 04:16:42 42° SW 04:18:19 87° SE 04:22:51 10° NE visible
15 Mar ? 05:56:48 10° W 06:00:55 29° NNW 06:04:48 10° NE visible
